Mancos, CO (81328)

4:51 PM MDT on September 02, 2015 (GMT -0600)
East Canyon | | Change Station
CLOSE
Current Station
Personal Weather Station
Location: Mancos, CO
Elevation: 7550 ft
Nearby Weather Stations

Elev 7550 ft 37.30 °N, 108.23 °W | Updated 37 minutes ago

Partly Cloudy
Partly Cloudy
72.5 °F
Feels Like 77 °F
N
8.0
Wind Variable Wind from SW
Gusts 17.0 mph

Today
High -- | Low -- °F
--% Chance of Precip.
Yesterday
High -- | Low -- °F
Precip. -- in
6:44 AM 7:41 PM
Waning Gibbous, 76% visible
Pressure 29.91 in
Visibility 10.0 miles
Clouds Clear
Heat Index 77 °F
Dew Point 41 °F
Humidity 32%
Rainfall 0.00 in
Snow Depth Not available.
UV 7 out of 12
Pollen 8.60 out of 12
Air Quality Not available.
Flu Activity Not available.
METAR KCEZ 022153Z AUTO 21014G19KT 10SM CLR 29/07 A3014 RMK AO2 SLP128 T02890067
Pressure 29.91 in
Visibility 10.0 miles
Clouds Clear
Heat Index 77 °F
Dew Point 41 °F
Humidity 32%
Rainfall 0.00 in
Snow Depth Not available.
UV 7 out of 12
Pollen 8.60 out of 12
Air Quality Not available.
Flu Activity Not available.
METAR KCEZ 022153Z AUTO 21014G19KT 10SM CLR 29/07 A3014 RMK AO2 SLP128 T02890067

10-Day Weather Forecast

×

Almanac

Astronomy

Sep. 02, 2015 Rise Set
Actual Time
Civil Twilight
Nautical Twilight
Astronomical Twilight
Moon
Length of Visible Light
Length of Day
Tomorrow will be .
, % of the Moon is Illuminated

Today's Extremes

State Highs State Lows

Community

WunderPhotos

Upload Photos

1,851,822 photos uploaded!

WunderBlogs® & News

Nearby

Air Quality

  Air Quality AQ Index Pollutant
Not available.

Snow Depth

Station Depth Elevation

Earthquake Activity

City Distance Mag. Time & Date
Minimum magnitude displayed is 2.5.

Coastal Water Temperatures

Place Temperature

Stations

Nearby Weather Stations

Station Location Temp. Windchill Dew Point Humidity Wind Precip. Elev Updated Type